Weather in Mogadishu

Somalia     2°02′38″N   45°21′15″E
temp.,
°C
wind,
m/s
gust,
m/s
humid.,
%
clouds,
%
prec.,
mm/h
press.,
hPa
HPBL,
m
22 october, fri
fri2200:00+26s578215 0.0 1013614
03:00+26s688299 0.0 1011637
06:00+26s678240 0.1 1013654
09:00+27s557511 0.1 1015796
12:00+28s55701 0.0 1013797
15:00+28s66725 0.0 1011723
18:00+27s567993 0.1 1012634
21:00+27sse567988 1.1 1014509
23 october, sat
sat2300:00+26s567985 2.5 1013477
03:00+26s45805 3.6 1012452
06:00+26sse46814 0.0 1014434
09:00+27se33720 0.0 1015628
12:00+28se44690 0.0 1013673
15:00+28se55710 0.0 1011629
18:00+27se56792 0.0 1012592
21:00+26ese56824 0.0 1014612
24 october, sun
sun2400:00+26ese448220 0.1 1013519
03:00+26ese44831 0.1 1012353
06:00+26ese56841 0.0 1013463
09:00+27e66740 0.0 1015628
12:00+28ese66715 0.0 1013733
15:00+28ese88737 0.0 1011628
18:00+26ese787940 0.0 1012566
21:00+26ese788154 0.0 1014594
25 october, mon
mon2500:00+26ese678229 0.0 1012677
03:00+26ese6780100 0.0 1012702
06:00+26ese6779100 0.1 1013818
09:00+27ese677599 0.1 1015881
12:00+28ese666948 0.0 1013934
15:00+28ese556957 0.0 1011832
18:00+27ese667334 0.0 1012748
21:00+26ese688078 0.0 1013676
26 october, tue
tue2600:00+26se678215 0.0 1012618
03:00+26se568119 0.0 1012543
06:00+26se458221 0.0 1013480
09:00+27se557555 0.1 1014751
12:00+28sse54715 0.1 1012760
15:00+28s547346 0.1 1011786
18:00+26sse78795 0.0 1011650
21:00+26sse68814 0.0 1013604